www.pogodaiklimat.ru

Погода и климат >> Архив погоды >> Антарктида >> Sky Blue


ПОГОДА на Sky Blue

  • Прогноз погоды на Sky Blue
  • Монитор погоды на Sky Blue

АРХИВ ПОГОДЫ на Sky Blue

Время (UTC), дата Ветер
(напр.,м/с)
 
Видим.   Явления Облачность Т
(С)
Тd
(С)
f
(%)
Тe
(С)
Тes
(С)
Комфортность P
(гПа)
Po
(гПа)
Тmin
(С)
Tmax
(С)
R
(мм)
R24
(мм)
S
(см)
00 14.05 СВ 10 н/о н/о -15.4 -17.7 82 -28 -28 947.5 785.5
03 14.05 СВ 8 н/о н/о -18.7 -21.5 79 -31 -31 опасность
обморожения
950.2 786.0
06 14.05 С 8 н/о н/о -17.3 -19.9 80 -29 -29 950.4 786.9
09 14.05 С 7 н/о н/о -17.3 -19.9 80 -28 -28 951.3 787.7
12 14.05 С 9 н/о н/о -21.2 -24.5 75 -34 -34 опасность
обморожения
955.2 788.8
15 14.05 С 9 н/о н/о -23.7 -27.4 71 -38 -38 опасность
обморожения
957.6 789.4
18 14.05 С 11 н/о н/о -24.7 -28.6 70 -41 -41 опасность
обморожения
958.9 789.9
21 14.05 С 14 н/о н/о -24.9 -28.8 70 -42 -42 опасность
обморожения
959.8 790.5
00 15.05 С 17 н/о н/о -27.5 -31.8 67 -47 -47 опасность
обморожения
962.9 791.6
03 15.05 С 15 н/о н/о -28.9 -33.4 65 -48 -48 опасность
обморожения
965.2 792.7
06 15.05 С 16 н/о н/о -30.1 -34.8 63 -50 -50 опасность
обморожения
965.6 792.3
09 15.05 С 14 н/о н/о -31.1 -36.0 62 -51 -51 опасность
обморожения
967.3 793.1
12 15.05 С 12 н/о н/о -31.9 -37.0 60 -51 -51 опасность
обморожения
969.3 794.3
15 15.05 С 12 н/о н/о -31.9 -37.0 60 -51 -51 опасность
обморожения
970.4 795.2
21 15.05 С 13 н/о н/о -33.3 -38.6 59 -53 -53 опасность
обморожения
973.7 797.1
03 16.05 С 9 н/о н/о -34.3 -39.8 57 -52 -52 опасность
обморожения
978.6 800.5
06 16.05 С 7 н/о н/о -34.5 -40.0 57 -51 -51 опасность
обморожения
979.9 801.4
09 16.05 С 7 н/о н/о -33.9 -39.3 58 -49 -49 опасность
обморожения
979.7 801.6
12 16.05 З 4 н/о н/о -28.1 -32.6 65 -38 -38 опасность
обморожения
974.7 801.0
15 16.05 СВ 4 н/о н/о -36.9 -42.7 55 -50 -50 опасность
обморожения
980.4 800.3
18 16.05 С 3 н/о н/о -34.5 -39.9 58 -45 -45 опасность
обморожения
978.3 800.1
21 16.05 ЮВ 2 н/о н/о -34.1 -39.5 58 -42 -42 опасность
обморожения
977.4 799.6
03 17.05 ЮВ 3 н/о н/о -30.1 -34.9 63 -40 -40 опасность
обморожения
973.5 798.8
15 17.05 СВ 3 н/о н/о -35.5 -41.1 56 -45 -45 опасность
обморожения
977.8 799.1
18 17.05 В 2 н/о н/о -36.4 -42.3 54 -45 -45 опасность
обморожения
978.9 799.4
21 17.05 СВ 3 н/о н/о -34.3 -39.8 57 -44 -44 опасность
обморожения
977.3 799.4
00 18.05 СВ 2 н/о н/о -34.2 -39.7 57 -43 -43 опасность
обморожения
977.6 799.7
03 18.05 нст 1 н/о н/о -30.8 -35.8 61 -35 -35 опасность
обморожения
974.5 799.2
06 18.05 нст 1 н/о н/о -28.4 -33.0 65 -30 -30 971.9 798.5
09 18.05 нст 1 н/о н/о -33.1 -38.3 59 -35 -35 опасность
обморожения
974.8 798.1
15 18.05 СВ 5 н/о н/о -33.6 -39.0 58 -47 -47 опасность
обморожения
974.6 797.6
18 18.05 В 6 н/о н/о -28.7 -33.5 63 -42 -42 опасность
обморожения
970.7 797.3
21 18.05 СВ 7 н/о н/о -33.5 -38.8 59 -49 -49 опасность
обморожения
974.0 797.2
00 19.05 СВ 7 н/о н/о -31.8 -36.9 60 -47 -47 опасность
обморожения
973.1 797.5
03 19.05 СВ 7 н/о н/о -33.3 -38.7 58 -49 -49 опасность
обморожения
974.1 797.4
06 19.05 СВ 6 н/о н/о -35.2 -40.8 56 -50 -50 опасность
обморожения
976.0 797.8
09 19.05 СВ 5 н/о н/о -30.4 -35.3 62 -43 -43 опасность
обморожения
972.7 798.0
12 19.05 СВ 1 н/о н/о -30.8 -35.8 61 -35 -35 опасность
обморожения
973.6 798.5
18 19.05 нст 1 н/о н/о -31.5 -36.6 61 -36 -36 опасность
обморожения
976.0 800.0
00 20.05 нст 1 н/о н/о -33.9 -39.5 57 -35 -35 опасность
обморожения
980.7 802.4
03 20.05 нст 1 н/о н/о -39.8 -46.2 50 -42 -42 опасность
обморожения
986.8 803.7
06 20.05 СВ 3 н/о н/о -36.5 -42.4 54 -48 -48 опасность
обморожения
985.4 804.7
09 20.05 СВ 5 н/о н/о -38.5 -44.8 51 -53 -53 опасность
обморожения
988.1 805.6
15 20.05 СВ 4 н/о н/о -38.0 -44.2 52 -51 -51 опасность
обморожения
989.8 807.3
21 20.05 СВ 4 н/о н/о -40.7 -47.3 49 -55 -55 опасность
обморожения
995.3 810.1

 

Местоположение метеостанции Sky Blue (Антарктида): широта -74.79 долгота -71.49 высота над уровнем моря 1589 м.

В архиве по умолчанию представлена погода на Sky Blue за последнюю неделю. Архивные данные за месяц целиком и за предыдущие месяцы, начиная с января 2011 года, Вы можете получить, выбрав интересующий диапазон дат из раскрывающегося списка и нажав кнопку "Ввод!".


*Определитесь, кто Вы:
робот инопланетянин человек

Внимание! Время в таблицах - всемирное. Для получения местного времени необходимо прибавить поправку, которая равна 0 ч.

Смотрите также архив погоды в соседних городах и на ближайших метеорологических станциях:

Погода на Лимберте (Антарктида) (367 км)
Погода на Fossil Bluff (Антарктида) (398 км)
Погода на Острове Батлер (Антарктида) (458 км)
Погода на San Martin Base (Антарктида) (758 км)
Погода на Rothera (Антарктида) (813 км)
Погода на Леднике Ларсена (Антарктида) (935 км)
Погода на Бельграно II (Антарктида) (1008 км)
Погода на Вернадский (Антарктида) (1094 км)
Погода на Палмер (Антарктида) (1149 км)
Погода на Byrd АМС (Антарктида) (1249 км)

Пояснения к столбцам:

Ветер - указаны скорость ветра в м/с - средняя за 10 мин, порывы в срок и между сроками (в фигурных скобках) и направление, откуда дует ветер: С - северный, СВ - северо-восточный, В - восточный, ЮВ - юго-восточный, Ю - южный, ЮЗ - юго-западный, З - западный, СЗ - северо-западный.
Видимость - горизонтальная дальность видимости в метрах или километрах. При видимости от 1 до 10 км при отсутствии осадков обычно наблюдается дымка, при ухудшении видимости до 1 км и менее - туман. В сухую погоду видимость может ухудшаться дымом, пылью или мглою.
Явления - указаны атмосферные явления, наблюдавшиеся в срок или в последний час перед сроком; фигурными скобками обозначены явления, наблюдавшиеся между сроками (за 1-3 часа до срока); квадратными скобками обозначены град или гололедные отложения с указанием их диаметра в мм.
Облачность - указаны через наклонную черту общая и нижняя облачность в баллах и высота нижней границы облаков в метрах; квадратными скобками обозначены формы облаков: Ci - перистые, Cs - перисто-слоистые, Cc - перисто-кучевые, Ac - высококучевые, As - высокослоистые, Sc - слоисто-кучевые, Ns - слоисто-дождевые, Cu - кучевые, Cb - кучево-дождевые. Подробнее классификацию облаков см. в Атласе облаков (PDF).
T - Температура воздуха - температура, измеренная на высоте 2 м над землей.
Td - Температура точки росы - температура, при понижении до которой содержащийся в воздухе водяной пар достигнет насыщения.
f - Относительная влажность воздуха - влажноcть воздуха, измеренная на высоте 2 м над землей.
Te - Эффективная температура - температура, которую ощущает одетый по сезону человек в тени. Характеристика душности погоды. При расчете учитывается влияние влажности воздуха и скорости ветра на теплоощущения человека.
Tes - Эффективная температура на солнце - температура, которую ощущает человек, с поправкой на солнечный нагрев. Характеристика знойности погоды. Зависит от высоты солнца над горизонтом, облачности и скорости ветра. Ночью, в пасмурную погоду, а также при ветре 12 м/с и более поправка равна нулю.
P - Атмосферное давление - приведенное к уровню моря атмосферное давление.
Po - Атмосферное давление - измеренное на уровне метеостанции атмосферное давление.
Tmin - Минимальная температура - минимум температуры воздуха на высоте 2 м над землей.
Tmax - Максимальная температура - максимум температуры воздуха на высоте 2 м над землей.
R - Количество осадков - Количество выпавших осадков за период времени, мм. При наведении курсора мыши на число - период времени, за который выпало указанное количество осадков.
R24 - Количество осадков - Количество выпавших осадков за 24 часа, мм.
S - Снежный покров - Высота снежного покрова, см. При наведении курсора мыши на число - состояние снежного покрова и степень покрытия местности в баллах.